SNKJ6 RPVD-RPVI

Flight info

Callsign SNKJ6
Flight time 0h 28m
Altitude 18000
Route AROLA3R AROLA DCT BCD BCD2S
Aircraft A320/M-SDE3FGHIRWY/LB1

Departure

Time 2026-04-23 11:23
Airport Sibulan Airport (RPVD)

Arrival

Time 2026-04-23 11:51
Airport Iloilo International Airport (RPVI)
Time Latitude Longitude Altitude Speed Heading
2026-04-23 11:10 9.33319 123.29622 50 ft 0 kts 148°
2026-04-23 11:11 9.33320 123.29622 50 ft 0 kts 148°
2026-04-23 11:21 9.33323 123.29629 46 ft 4 kts 61°
2026-04-23 11:21 9.33373 123.29577 49 ft 16 kts 277°
2026-04-23 11:21 9.33430 123.29487 53 ft 14 kts 335°
2026-04-23 11:22 9.33452 123.29513 52 ft 5 kts 91°
2026-04-23 11:22 9.33448 123.29673 51 ft 57 kts 92°
2026-04-23 11:22 9.33413 123.30310 39 ft 121 kts 92°
2026-04-23 11:22 9.33370 123.31283 290 ft 140 kts 91°
2026-04-23 11:23 9.33341 123.32175 1085 ft 120 kts 92°
2026-04-23 11:23 9.33478 123.33068 1325 ft 139 kts 71°
2026-04-23 11:23 9.33955 123.33937 1675 ft 144 kts 54°
2026-04-23 11:23 9.34633 123.34761 1876 ft 162 kts 50°
2026-04-23 11:24 9.35447 123.35656 2063 ft 184 kts 49°
2026-04-23 11:24 9.36361 123.36665 2254 ft 206 kts 48°
2026-04-23 11:24 9.37373 123.37802 2485 ft 229 kts 49°
2026-04-23 11:24 9.38458 123.39041 2991 ft 238 kts 49°
2026-04-23 11:25 9.39553 123.40312 3710 ft 240 kts 50°
2026-04-23 11:25 9.40652 123.41602 4418 ft 244 kts 50°
2026-04-23 11:25 9.41762 123.42918 5158 ft 247 kts 50°
2026-04-23 11:25 9.42880 123.44254 5930 ft 250 kts 50°
2026-04-23 11:26 9.43990 123.45587 6685 ft 253 kts 50°
2026-04-23 11:26 9.45153 123.46931 7401 ft 257 kts 44°
2026-04-23 11:26 9.46604 123.48089 7831 ft 275 kts 36°
2026-04-23 11:26 9.48188 123.49239 8402 ft 284 kts 36°
2026-04-23 11:27 9.49820 123.50416 9100 ft 290 kts 36°
2026-04-23 11:27 9.51475 123.51612 9799 ft 294 kts 36°
2026-04-23 11:27 9.53166 123.52831 10218 ft 308 kts 36°
2026-04-23 11:27 9.54984 123.54141 10361 ft 331 kts 36°
2026-04-23 11:28 9.56950 123.55449 10662 ft 345 kts 27°
2026-04-23 11:28 9.59238 123.56259 11175 ft 352 kts 11°
2026-04-23 11:28 9.61689 123.56397 11743 ft 357 kts 355°
2026-04-23 11:28 9.64115 123.55837 12324 ft 360 kts 338°
2026-04-23 11:29 9.66409 123.54783 12905 ft 364 kts 335°
2026-04-23 11:29 9.68719 123.53685 13486 ft 368 kts 334°
2026-04-23 11:29 9.71050 123.52574 13994 ft 372 kts 334°
2026-04-23 11:29 9.73397 123.51458 14488 ft 375 kts 335°
2026-04-23 11:30 9.75773 123.50331 14978 ft 379 kts 335°
2026-04-23 11:30 9.78179 123.49195 15496 ft 381 kts 335°
2026-04-23 11:30 9.80593 123.48058 16015 ft 384 kts 335°
2026-04-23 11:30 9.83025 123.46912 16511 ft 387 kts 335°
2026-04-23 11:31 9.85469 123.45760 17049 ft 388 kts 335°
2026-04-23 11:31 9.87928 123.44598 17509 ft 392 kts 335°
2026-04-23 11:31 9.90409 123.43422 17786 ft 394 kts 335°
2026-04-23 11:31 9.92910 123.42235 17846 ft 401 kts 335°
2026-04-23 11:32 9.95445 123.41033 17849 ft 404 kts 335°
2026-04-23 11:32 9.97995 123.39825 17857 ft 405 kts 335°
2026-04-23 11:32 10.00550 123.38615 17854 ft 404 kts 335°
2026-04-23 11:32 10.03102 123.37407 17854 ft 404 kts 335°
2026-04-23 11:33 10.05650 123.36202 17844 ft 404 kts 335°
2026-04-23 11:33 10.08195 123.34997 17847 ft 404 kts 335°
2026-04-23 11:33 10.10745 123.33788 17850 ft 405 kts 335°
2026-04-23 11:33 10.13258 123.32594 17851 ft 404 kts 335°
2026-04-23 11:34 10.15808 123.31383 17848 ft 405 kts 335°
2026-04-23 11:34 10.18397 123.30155 17852 ft 405 kts 335°
2026-04-23 11:34 10.20919 123.28960 17860 ft 405 kts 335°
2026-04-23 11:34 10.23476 123.27748 17863 ft 406 kts 335°
2026-04-23 11:35 10.26026 123.26539 17870 ft 405 kts 335°
2026-04-23 11:35 10.28585 123.25328 17866 ft 405 kts 335°
2026-04-23 11:35 10.31139 123.24119 17866 ft 405 kts 335°
2026-04-23 11:35 10.33696 123.22907 17864 ft 405 kts 335°
2026-04-23 11:36 10.36246 123.21695 17860 ft 405 kts 335°
2026-04-23 11:36 10.38790 123.20481 17855 ft 405 kts 335°
2026-04-23 11:36 10.41340 123.19266 17845 ft 403 kts 335°
2026-04-23 11:36 10.43853 123.18070 17580 ft 393 kts 335°
2026-04-23 11:37 10.46289 123.16912 17331 ft 382 kts 335°
2026-04-23 11:37 10.48668 123.15784 17075 ft 373 kts 334°
2026-04-23 11:37 10.51002 123.14676 16829 ft 367 kts 334°
2026-04-23 11:37 10.53305 123.13585 16584 ft 364 kts 335°
2026-04-23 11:38 10.55601 123.12497 16342 ft 364 kts 334°
2026-04-23 11:38 10.57894 123.11408 16098 ft 362 kts 334°
2026-04-23 11:38 10.60167 123.10327 15855 ft 360 kts 334°
2026-04-23 11:38 10.62430 123.09249 15619 ft 359 kts 334°
2026-04-23 11:39 10.64685 123.08172 15385 ft 357 kts 334°
2026-04-23 11:39 10.66927 123.07100 15155 ft 355 kts 334°
2026-04-23 11:39 10.69155 123.06037 14916 ft 353 kts 334°
2026-04-23 11:39 10.71362 123.04987 14538 ft 349 kts 334°
2026-04-23 11:40 10.73553 123.03944 14237 ft 343 kts 334°
2026-04-23 11:40 10.75651 123.02939 14127 ft 332 kts 331°
2026-04-23 11:40 10.77543 123.01666 13925 ft 322 kts 317°
2026-04-23 11:40 10.79059 123.00009 13563 ft 319 kts 304°
2026-04-23 11:41 10.80362 122.98202 13257 ft 315 kts 304°
2026-04-23 11:41 10.81665 122.96409 12869 ft 315 kts 304°
2026-04-23 11:41 10.82965 122.94630 12378 ft 311 kts 305°
2026-04-23 11:41 10.84255 122.92873 11715 ft 310 kts 306°
2026-04-23 11:42 10.85551 122.91114 11242 ft 308 kts 306°
2026-04-23 11:42 10.86821 122.89389 10881 ft 303 kts 306°
2026-04-23 11:42 10.88082 122.87679 10458 ft 302 kts 306°
2026-04-23 11:42 10.89337 122.85972 10031 ft 300 kts 306°
2026-04-23 11:43 10.90588 122.84267 9581 ft 302 kts 306°
2026-04-23 11:43 10.91845 122.82547 9128 ft 301 kts 306°
2026-04-23 11:43 10.93087 122.80849 8673 ft 297 kts 306°
2026-04-23 11:43 10.94312 122.79172 8244 ft 294 kts 306°
2026-04-23 11:44 10.95532 122.77502 7821 ft 295 kts 306°
2026-04-23 11:44 10.96765 122.75820 7401 ft 298 kts 307°
2026-04-23 11:44 10.97997 122.74144 7090 ft 295 kts 307°
2026-04-23 11:44 10.99217 122.72481 6648 ft 290 kts 306°
2026-04-23 11:45 11.00417 122.70841 6111 ft 287 kts 307°
2026-04-23 11:45 11.01581 122.69250 5881 ft 271 kts 307°
2026-04-23 11:45 11.02309 122.68255 5825 ft 258 kts 307°
2026-04-23 11:45 11.03194 122.66752 5730 ft 243 kts 291°
2026-04-23 11:46 11.03638 122.64517 5320 ft 247 kts 268°
2026-04-23 11:46 11.03524 122.63354 4900 ft 252 kts 258°
2026-04-23 11:46 11.03103 122.60987 4226 ft 251 kts 260°
2026-04-23 11:46 11.02905 122.59853 4089 ft 242 kts 260°
2026-04-23 11:47 11.02588 122.58201 3962 ft 235 kts 252°
2026-04-23 11:47 11.01831 122.56769 3801 ft 230 kts 229°
2026-04-23 11:47 11.00570 122.55748 3390 ft 235 kts 203°
2026-04-23 11:47 10.99073 122.55170 3073 ft 225 kts 197°
2026-04-23 11:48 10.97639 122.54641 2828 ft 215 kts 198°
2026-04-23 11:48 10.96262 122.54132 2520 ft 204 kts 198°
2026-04-23 11:48 10.94977 122.53655 2271 ft 189 kts 197°
2026-04-23 11:48 10.93789 122.53216 2038 ft 174 kts 198°
2026-04-23 11:49 10.92695 122.52810 1821 ft 163 kts 197°
2026-04-23 11:49 10.91651 122.52424 1618 ft 157 kts 197°
2026-04-23 11:49 10.90623 122.52045 1434 ft 158 kts 197°
2026-04-23 11:49 10.89607 122.51669 1233 ft 154 kts 197°
2026-04-23 11:50 10.88593 122.51294 1045 ft 154 kts 199°
2026-04-23 11:50 10.87592 122.50923 868 ft 154 kts 199°
2026-04-23 11:50 10.86576 122.50548 663 ft 153 kts 197°
2026-04-23 11:50 10.85564 122.50161 449 ft 156 kts 203°
2026-04-23 11:51 10.84549 122.49793 216 ft 153 kts 198°
2026-04-23 11:51 10.83583 122.49438 142 ft 134 kts 199°
2026-04-23 11:51 10.82958 122.49205 140 ft 52 kts 199°
2026-04-23 11:51 10.82764 122.49162 140 ft 7 kts 187°
2026-04-23 11:52 10.82776 122.49160 140 ft 4 kts 37°
2026-04-23 11:52 10.82808 122.49172 140 ft 6 kts 17°
2026-04-23 11:52 10.82861 122.49189 141 ft 11 kts 18°
2026-04-23 11:52 10.82944 122.49217 140 ft 14 kts 18°
2026-04-23 11:53 10.82955 122.49221 140 ft 14 kts 18°
2026-04-23 11:53 10.83003 122.49237 140 ft 16 kts 18°
2026-04-23 11:53 10.83085 122.49276 141 ft 14 kts 63°
2026-04-23 11:53 10.83061 122.49350 141 ft 12 kts 109°
2026-04-23 11:54 10.83031 122.49443 140 ft 15 kts 108°
2026-04-23 11:54 10.83043 122.49525 140 ft 8 kts 53°
2026-04-23 11:54 10.83097 122.49550 140 ft 10 kts 25°
2026-04-23 11:54 10.83143 122.49578 140 ft 3 kts 86°
2026-04-23 11:55 10.83132 122.49605 139 ft 5 kts 121°
2026-04-23 11:55 10.83116 122.49643 139 ft 4 kts 109°
2026-04-23 11:55 10.83113 122.49655 142 ft 3 kts 107°
2026-04-23 11:55 10.83111 122.49659 142 ft 0 kts 108°
2026-04-23 11:56 10.83111 122.49661 142 ft 0 kts 108°